User: anonymous   Login
Location: Unspecified
(0.0000°N, 0.0000°E)
Time: 22:52:29
(UTC+00:00)
Language:

JCSAT-14 - Orbit

View from above orbital plane
View from above orbital plane
View from above satellite
View from above satellite

Ground track
Ground track

The orbit data is extracted from the following two-line orbital elements,

1 41471U 16028A   18294.48916664 -.00000169 +00000-0 +00000-0 0  9999
2 41471 000.0203 218.4681 0002102 347.1143 154.4072 01.00269290009070
Epoch (UTC): 21 October 2018 11:44:23
Eccentricity: 0.0002102
inclination: 0.0203°
perigee height: 35778 km
apogee height: 35796 km
right ascension of ascending node: 218.4681°
argument of perigee: 347.1143°
revolutions per day: 1.00269290
mean anomaly at epoch: 154.4072°
orbit number at epoch: 907

The dashed part of the orbit path shows where the satellite is in the earth's shadow,  

DLR